Location: ???????
(55.4362°N, 38.1183°E)
Time: 02:28:02
(UTC+00:00)

NOSS 2-3 (E) - Pass Details

Date: 17 June 2021
Orbit: 555 x 1655 km, 63.4° (Epoch: 23 July)

Event Time Altitude Azimuth Distance (km) Brightness Sun altitude
Exits shadow 22:35:34 14° 201° (SSW) 1,706 5.1 -9.9°
Maximum altitude 22:39:05 48° 129° (SE) 850 4.1 -9.7°
Drops below altitude 10° 22:44:00 10° 56° (NE) 2,311 7.3 -9.5°
Sets 22:46:47 0° 51° (NE) 3,409 8.4 -9.4°
